EW7554 Weather Reports


time (UTC)temp
C
wind
direction
speed
KPH
gust
KPH
rain 1hr
cm
rain 24hr
cm
rain mn
cm
humidity
%
barometer
mb
20260508114527 6 196 4.8 9.7 0.00 0.00 0.00 48 1008.9
20260508113022 6 217 4.8 9.7 0.00 0.00 0.00 48 1008.9
20260508111527 6 200 6.4 11.3 0.00 0.00 0.00 48 1009.0
20260508110020 6 199 4.8 11.3 0.00 0.00 0.00 48 1008.9
20260508104514 6 209 4.8 8.0 0.00 0.00 0.00 48 1008.9
20260508103022 6 207 4.8 8.0 0.00 0.00 0.00 48 1008.9
20260508101511 6 217 4.8 9.7 0.00 0.00 0.00 48 1009.0
20260508100009 6 206 3.2 8.0 0.00 0.00 0.00 48 1009.1
20260508094507 6 224 4.8 9.7 0.00 0.00 0.00 47 1009.1
20260508093004 7 228 3.2 8.0 0.00 0.00 0.00 46 1009.2
20260508091503 7 215 4.8 9.7 0.00 0.00 0.00 45 1009.2
20260508090004 7 209 4.8 9.7 0.00 0.00 0.00 46 1009.3
20260508084501 7 202 4.8 9.7 0.00 0.00 0.00 47 1009.2
20260508083109 7 204 6.4 9.7 0.00 0.00 0.00 47 1009.2
20260508081605 7 208 3.2 8.0 0.00 0.00 0.00 47 1009.3
20260508074603 7 202 3.2 8.0 0.00 0.00 0.00 47 1009.6
20260508073053 7 202 3.2 8.0 0.00 0.00 0.00 48 1009.6
20260508071550 7 197 4.8 8.0 0.00 0.00 0.00 48 1009.7
20260508070048 7 190 3.2 6.4 0.00 0.00 0.00 49 1009.8
20260508064546 7 188 3.2 6.4 0.00 0.00 0.00 48 1009.8
20260508063045 7 192 3.2 6.4 0.00 0.00 0.00 48 1010.0
20260508061542 8 180 4.8 6.4 0.00 0.00 0.00 47 1010.1
20260508060042 8 171 4.8 14.5 0.00 0.00 0.00 48 1010.2
20260508054542 7 197 4.8 9.7 0.00 0.00 0.00 51 1010.3
20260508053033 8 202 4.8 9.7 0.00 0.00 0.00 50 1010.4
20260508051535 8 181 3.2 4.8 0.00 0.00 0.00 50 1010.4
20260508050034 8 178 3.2 4.8 0.00 0.00 0.00 49 1010.4
20260508044530 8 182 4.8 6.4 0.00 0.00 0.00 48 1010.6
20260508043028 9 180 3.2 8.0 0.00 0.00 0.00 46 1010.6
20260508041527 9 181 1.6 6.4 0.00 0.00 0.00 45 1010.7
20260508040029 10 186 3.2 6.4 0.00 0.00 0.00 43 1010.8
20260508034532 10 188 4.8 6.4 0.00 0.00 0.00 41 1010.9
20260508033027 10 190 1.6 4.8 0.00 0.00 0.00 41 1011.0
20260508031527 10 190 1.6 4.8 0.00 0.00 0.00 40 1011.0
20260508030026 11 211 3.2 6.4 0.00 0.00 0.00 36 1011.0
20260508024527 11 284 1.6 3.2 0.00 0.00 0.00 35 1011.0
20260508023024 11 284 0.0 3.2 0.00 0.00 0.00 34 1011.0
20260508021527 12 284 0.0 3.2 0.00 0.00 0.00 33 1011.0
20260508020034 12 284 0.0 3.2 0.00 0.00 0.00 32 1010.8
20260508014524 12 284 1.6 4.8 0.00 0.00 0.00 31 1010.7
20260508013022 13 284 1.6 6.4 0.00 0.00 0.00 30 1010.6
20260508011525 13 290 4.8 12.9 0.00 0.00 0.00 29 1010.5
20260508010022 13 277 3.2 12.9 0.00 0.00 0.00 28 1010.4
20260508004522 14 292 3.2 16.1 0.00 0.00 0.00 27 1010.4
20260508003021 14 295 9.7 17.7 0.00 0.00 0.00 26 1010.5
20260508001520 15 297 6.4 12.9 0.00 0.00 0.00 26 1010.5
20260508000019 15 244 8.0 19.3 0.00 0.00 0.00 25 1010.5
20260507234520 15 268 6.4 14.5 0.00 0.00 0.00 25 1010.7
20260507233016 15 299 8.0 20.9 0.00 0.00 0.00 25 1010.8
20260507231515 16 268 9.7 17.7 0.00 0.00 0.00 23 1010.9
20260507230015 15 297 9.7 20.9 0.00 0.00 0.00 23 1011.1
20260507224519 15 328 16.1 22.5 0.00 0.00 0.00 24 1011.0
20260507223012 16 341 4.8 20.9 0.00 0.00 0.00 25 1011.2
20260507221512 15 248 11.3 22.5 0.00 0.00 0.00 24 1011.1
20260507220009 15 293 8.0 24.1 0.00 0.00 0.00 24 1011.3
20260507214520 14 282 14.5 22.5 0.00 0.00 0.00 24 1011.5
20260507213006 15 279 9.7 24.1 0.00 0.00 0.00 24 1011.6
20260507211507 15 346 4.8 12.9 0.00 0.00 0.00 24 1011.6
20260507210002 14 283 8.0 19.3 0.00 0.00 0.00 26 1011.9
20260507204600 13 336 4.8 20.9 0.00 0.00 0.00 25 1012.0
20260507203059 13 311 11.3 24.1 0.00 0.00 0.00 26 1012.3
20260507201607 13 205 11.3 20.9 0.00 0.00 0.00 25 1012.4
20260507200101 13 288 9.7 22.5 0.00 0.00 0.00 27 1012.5
20260507194556 12 340 9.7 17.7 0.00 0.00 0.00 27 1012.7
20260507193057 13 336 9.7 19.3 0.00 0.00 0.00 26 1012.7
20260507191553 13 355 9.7 20.9 0.00 0.00 0.00 27 1012.9
20260507190051 13 319 6.4 16.1 0.00 0.00 0.00 28 1013.0
20260507184550 12 315 3.2 19.3 0.00 0.00 0.00 27 1013.0
20260507183047 12 321 6.4 14.5 0.00 0.00 0.00 28 1013.1
20260507181545 12 289 6.4 17.7 0.00 0.00 0.00 27 1013.2
20260507180048 11 301 12.9 22.5 0.00 0.00 0.00 27 1013.3
20260507174547 11 209 6.4 17.7 0.00 0.00 0.00 29 1013.4
20260507173044 11 288 3.2 16.1 0.00 0.00 0.00 30 1013.5
20260507171545 10 304 4.8 20.9 0.00 0.00 0.00 29 1013.7
20260507170034 11 355 3.2 17.7 0.00 0.00 0.00 32 1013.8
20260507164532 10 340 8.0 22.5 0.00 0.00 0.00 29 1014.0
20260507163027 10 350 4.8 16.1 0.00 0.00 0.00 31 1014.2
20260507161524 10 348 8.0 16.1 0.00 0.00 0.00 31 1014.2
20260507160023 10 331 9.7 16.1 0.00 0.00 0.00 34 1014.3
20260507154520 10 306 1.6 8.0 0.00 0.00 0.00 37 1014.4
20260507153013 9 338 0.0 12.9 0.00 0.00 0.00 37 1014.4
20260507151510 8 330 4.8 14.5 0.00 0.00 0.00 38 1014.6
20260507150006 8 252 1.6 11.3 0.00 0.00 0.00 37 1014.4
20260507144501 8 355 3.2 6.4 0.00 0.00 0.00 41 1014.6
20260507143058 8 294 3.2 8.0 0.00 0.00 0.00 41 1014.6
20260507141615 7 337 1.6 8.0 0.00 0.00 0.00 44 1014.7
20260507140049 7 221 1.6 8.0 0.00 0.00 0.00 45 1014.8
20260507134549 6 275 3.2 8.0 0.00 0.00 0.00 52 1014.7
20260507133042 6 296 1.6 4.8 0.00 0.00 0.00 57 1014.8
20260507131541 5 306 1.6 6.4 0.00 0.00 0.00 59 1014.9
20260507130033 5 259 1.6 4.8 0.00 0.00 0.00 66 1014.9
20260507124530 3 258 0.0 1.6 0.00 0.00 0.00 75 1015.0
20260507123029 2 258 0.0 3.2 0.00 0.00 0.00 78 1015.0
20260507121525 1 258 0.0 3.2 0.00 0.00 0.00 79 1015.0
20260507120020 1 258 0.0 3.2 0.00 0.00 0.00 78 1015.0